Zurück zum Katalog

GHGSAT-C1

AktivWissenschaftSSO
NORAD 46278·PAYLOAD·🇨🇦 Canada

Gestartet Sep 3, 2020 von Guiana Space Centre

Loading…

Nächste Überflüge (nächste 24 Stunden)

TLE

AktuellSource: Space-Track

Epoche: Sep 14, 2026, 18:50 UTC

1 46278U 20061G   26257.78499572  .00142179  00000-0  67435-3 0  9991
2 46278  97.2031 346.3674 0001796 244.0802 116.0283 15.82568406337589

Verfolge GHGSAT-C1 in Echtzeit mit AllMySat

Download on the App Store